| time (UTC) | temp C | wind direction | speed KPH | gust KPH | rain 1hr cm | rain 24hr cm | rain mn cm | humidity % | barometer mb |
| 20260903152203 | -17 | 135 | 0.0 | 0.0 | 0.00 | 0.00 | 0.00 | 99 | 1009.0 |
| 20260903151703 | -17 | 282 | 0.0 | 0.0 | 0.00 | 0.00 | 0.00 | 99 | 1009.1 |
| 20260903151203 | -17 | 135 | 0.0 | 0.0 | 0.00 | 0.00 | 0.00 | 99 | 1009.0 |
| 20260903150702 | -17 | 233 | 0.0 | 0.0 | 0.00 | 0.00 | 0.00 | 99 | 1009.0 |
| 20260903150203 | -17 | 267 | 0.0 | 0.0 | 0.00 | 0.00 | 0.00 | 99 | 1009.0 |
| 20260903145703 | -17 | 231 | 0.0 | 0.0 | 0.00 | 0.00 | 0.00 | 99 | 1009.0 |
| 20260903145203 | -17 | 270 | 0.0 | 0.0 | 0.00 | 0.00 | 0.00 | 99 | 1009.0 |
| 20260903144703 | -17 | 212 | 0.0 | 0.0 | 0.00 | 0.00 | 0.00 | 99 | 1009.1 |
| 20260903144203 | -17 | 165 | 0.0 | 0.0 | 0.00 | 0.00 | 0.00 | 99 | 1009.2 |
| 20260903143702 | -17 | 290 | 0.0 | 0.0 | 0.00 | 0.00 | 0.00 | 99 | 1009.2 |
| 20260903143202 | -17 | 7 | 0.0 | 0.0 | 0.00 | 0.00 | 0.00 | 99 | 1010.0 |
| 20260903142703 | -17 | 60 | 0.0 | 0.0 | 0.00 | 0.00 | 0.00 | 99 | 1009.2 |
| 20260903142203 | -17 | 313 | 0.0 | 0.0 | 0.00 | 0.00 | 0.00 | 99 | 1009.2 |
| 20260903141703 | -17 | 160 | 0.0 | 0.0 | 0.00 | 0.00 | 0.00 | 99 | 1009.2 |
| 20260903141202 | -17 | 290 | 0.0 | 0.0 | 0.00 | 0.00 | 0.00 | 99 | 1009.2 |
| 20260903140702 | -17 | 261 | 0.0 | 0.0 | 0.00 | 0.00 | 0.00 | 99 | 1009.2 |
| 20260903140202 | -17 | 278 | 0.0 | 0.0 | 0.00 | 0.00 | 0.00 | 99 | 1009.2 |
| 20260903135702 | -17 | 299 | 0.0 | 0.0 | 0.00 | 0.00 | 0.00 | 99 | 1010.0 |
| 20260903135202 | -17 | 140 | 0.0 | 0.0 | 0.00 | 0.00 | 0.00 | 99 | 1009.2 |
| 20260903134702 | -17 | 212 | 0.0 | 0.0 | 0.00 | 0.00 | 0.00 | 99 | 1009.2 |
| 20260903134202 | -17 | 153 | 0.0 | 0.0 | 0.00 | 0.00 | 0.00 | 99 | 1009.1 |
| 20260903133702 | -17 | 246 | 0.0 | 0.0 | 0.00 | 0.00 | 0.00 | 99 | 1009.0 |
| 20260903133202 | -17 | 178 | 0.0 | 0.0 | 0.00 | 0.00 | 0.00 | 99 | 1009.2 |
| 20260903132702 | -17 | 138 | 0.0 | 0.0 | 0.00 | 0.00 | 0.00 | 99 | 1009.2 |
| 20260903132202 | -17 | 40 | 0.0 | 0.0 | 0.00 | 0.00 | 0.00 | 99 | 1010.0 |
| 20260903131703 | -17 | 175 | 0.0 | 0.0 | 0.00 | 0.00 | 0.00 | 99 | 1009.2 |
| 20260903131202 | -17 | 86 | 0.0 | 0.0 | 0.00 | 0.00 | 0.00 | 99 | 1009.2 |
| 20260903130702 | -17 | 287 | 0.0 | 0.0 | 0.00 | 0.00 | 0.00 | 99 | 1009.2 |
| 20260903130202 | -17 | 178 | 0.0 | 0.0 | 0.00 | 0.00 | 0.00 | 99 | 1009.1 |
| 20260903125703 | -17 | 207 | 0.0 | 0.0 | 0.00 | 0.00 | 0.00 | 99 | 1009.2 |
| 20260903125203 | -17 | 160 | 0.0 | 0.0 | 0.00 | 0.00 | 0.00 | 99 | 1009.2 |
| 20260903124702 | -17 | 152 | 0.0 | 0.0 | 0.00 | 0.00 | 0.00 | 99 | 1010.0 |
| 20260903124202 | -17 | 171 | 0.0 | 0.0 | 0.00 | 0.00 | 0.00 | 99 | 1010.0 |
| 20260903123702 | -17 | 135 | 0.0 | 0.0 | 0.00 | 0.00 | 0.00 | 99 | 1010.0 |
| 20260903123207 | -17 | 143 | 0.0 | 0.0 | 0.00 | 0.00 | 0.00 | 99 | 1010.0 |
| 20260903114702 | -17 | 43 | 0.0 | 0.0 | 0.00 | 0.00 | 0.00 | 99 | 1010.0 |
| 20260903114202 | -17 | 57 | 0.0 | 0.0 | 0.00 | 0.00 | 0.00 | 99 | 1009.2 |
| 20260903113702 | -17 | 101 | 0.0 | 0.0 | 0.00 | 0.00 | 0.00 | 99 | 1010.0 |
| 20260903113202 | -17 | 76 | 0.0 | 0.0 | 0.00 | 0.00 | 0.00 | 99 | 1010.0 |
| 20260903112702 | -17 | 1 | 0.0 | 0.0 | 0.00 | 0.00 | 0.00 | 99 | 1010.0 |
| 20260903112202 | -17 | 250 | 0.0 | 0.0 | 0.00 | 0.00 | 0.00 | 99 | 1010.0 |
| 20260903111702 | -17 | 91 | 0.0 | 0.0 | 0.00 | 0.00 | 0.00 | 99 | 1010.0 |
| 20260903111202 | -17 | 155 | 0.0 | 0.0 | 0.00 | 0.00 | 0.00 | 99 | 1010.0 |
| 20260903110702 | -17 | 157 | 0.0 | 0.0 | 0.00 | 0.00 | 0.00 | 99 | 1010.0 |
| 20260903110202 | -17 | 267 | 0.0 | 0.0 | 0.00 | 0.00 | 0.00 | 99 | 1010.0 |
| 20260903105702 | -17 | 291 | 0.0 | 0.0 | 0.00 | 0.00 | 0.00 | 99 | 1010.0 |
| 20260903105202 | -17 | 281 | 0.0 | 0.0 | 0.00 | 0.00 | 0.00 | 99 | 1010.0 |
| 20260903104702 | -17 | 323 | 0.0 | 0.0 | 0.00 | 0.00 | 0.00 | 99 | 1010.0 |
| 20260903104202 | -17 | 264 | 0.0 | 0.0 | 0.00 | 0.00 | 0.00 | 99 | 1010.0 |
| 20260903103702 | -17 | 135 | 0.0 | 0.0 | 0.00 | 0.00 | 0.00 | 99 | 1010.0 |
| 20260903103202 | -17 | 196 | 0.0 | 0.0 | 0.00 | 0.00 | 0.00 | 99 | 1010.0 |
| 20260903102702 | -17 | 165 | 0.0 | 0.0 | 0.00 | 0.00 | 0.00 | 99 | 1010.0 |
| 20260903102202 | -17 | 138 | 0.0 | 0.0 | 0.00 | 0.00 | 0.00 | 99 | 1010.0 |
| 20260903101702 | -17 | 76 | 0.0 | 0.0 | 0.00 | 0.00 | 0.00 | 99 | 1010.0 |
| 20260903101202 | -17 | 211 | 0.0 | 0.0 | 0.00 | 0.00 | 0.00 | 99 | 1009.2 |
| 20260903100702 | -17 | 150 | 0.0 | 0.0 | 0.00 | 0.00 | 0.00 | 99 | 1010.0 |
| 20260903100202 | -17 | 135 | 0.0 | 0.0 | 0.00 | 0.00 | 0.00 | 99 | 1010.0 |
| 20260903095702 | -17 | 79 | 0.0 | 0.0 | 0.00 | 0.00 | 0.00 | 99 | 1010.0 |
| 20260903095202 | -17 | 96 | 0.0 | 0.0 | 0.00 | 0.00 | 0.00 | 99 | 1010.0 |
| 20260903094702 | -17 | 274 | 0.0 | 0.0 | 0.00 | 0.00 | 0.00 | 99 | 1010.0 |
| 20260903094202 | -17 | 267 | 0.0 | 0.0 | 0.00 | 0.00 | 0.00 | 99 | 1009.2 |
| 20260903093702 | -17 | 136 | 0.0 | 0.0 | 0.00 | 0.00 | 0.00 | 99 | 1010.0 |
| 20260903093202 | -17 | 135 | 0.0 | 0.0 | 0.00 | 0.00 | 0.00 | 99 | 1009.2 |
| 20260903092702 | -17 | 270 | 0.0 | 0.0 | 0.00 | 0.00 | 0.00 | 99 | 1010.0 |
| 20260903092202 | -17 | 266 | 0.0 | 0.0 | 0.00 | 0.00 | 0.00 | 99 | 1009.2 |
| 20260903091702 | -17 | 264 | 0.0 | 0.0 | 0.00 | 0.00 | 0.00 | 99 | 1010.0 |
| 20260903091202 | -17 | 237 | 0.0 | 0.0 | 0.00 | 0.00 | 0.00 | 99 | 1009.2 |
| 20260903090702 | -17 | 169 | 0.0 | 0.0 | 0.00 | 0.00 | 0.00 | 99 | 1010.0 |
| 20260903090202 | -17 | 286 | 0.0 | 0.0 | 0.00 | 0.00 | 0.00 | 99 | 1009.2 |
| 20260903085702 | -17 | 331 | 0.0 | 0.0 | 0.00 | 0.00 | 0.00 | 99 | 1010.0 |
| 20260903085202 | -17 | 4 | 0.0 | 0.0 | 0.00 | 0.00 | 0.00 | 99 | 1010.0 |
| 20260903084702 | -17 | 162 | 0.0 | 0.0 | 0.00 | 0.00 | 0.00 | 99 | 1010.0 |
| 20260903084202 | -17 | 174 | 0.0 | 0.0 | 0.00 | 0.00 | 0.00 | 99 | 1009.2 |
| 20260903083702 | -17 | 251 | 0.0 | 0.0 | 0.00 | 0.00 | 0.00 | 99 | 1010.0 |
| 20260903083202 | -17 | 180 | 0.0 | 0.0 | 0.00 | 0.00 | 0.00 | 99 | 1009.2 |
| 20260903082702 | -17 | 276 | 0.0 | 0.0 | 0.00 | 0.00 | 0.00 | 99 | 1010.0 |
| 20260903082202 | -17 | 150 | 0.0 | 0.0 | 0.00 | 0.00 | 0.00 | 99 | 1010.0 |
| 20260903081702 | -17 | 124 | 0.0 | 0.0 | 0.00 | 0.00 | 0.00 | 99 | 1010.0 |
| 20260903081202 | -17 | 33 | 0.0 | 0.0 | 0.00 | 0.00 | 0.00 | 99 | 1010.0 |
| 20260903080702 | -17 | 247 | 0.0 | 0.0 | 0.00 | 0.00 | 0.00 | 99 | 1010.0 |
| 20260903080202 | -17 | 270 | 0.0 | 0.0 | 0.00 | 0.00 | 0.00 | 99 | 1009.2 |
| 20260903075702 | -17 | 280 | 0.0 | 0.0 | 0.00 | 0.00 | 0.00 | 99 | 1009.2 |
| 20260903075202 | -17 | 293 | 0.0 | 0.0 | 0.00 | 0.00 | 0.00 | 99 | 1009.2 |
| 20260903074702 | -17 | 198 | 0.0 | 0.0 | 0.00 | 0.00 | 0.00 | 99 | 1009.2 |
| 20260903074202 | -17 | 136 | 0.0 | 0.0 | 0.00 | 0.00 | 0.00 | 99 | 1009.2 |
| 20260903073702 | -17 | 256 | 0.0 | 0.0 | 0.00 | 0.00 | 0.00 | 99 | 1010.0 |
| 20260903073202 | -17 | 182 | 0.0 | 0.0 | 0.00 | 0.00 | 0.00 | 99 | 1009.2 |
| 20260903072702 | -17 | 139 | 0.0 | 0.0 | 0.00 | 0.00 | 0.00 | 99 | 1009.1 |
| 20260903072202 | -17 | 193 | 0.0 | 0.0 | 0.00 | 0.00 | 0.00 | 99 | 1009.0 |
| 20260903071702 | -17 | 288 | 0.0 | 0.0 | 0.00 | 0.00 | 0.00 | 99 | 1009.0 |
| 20260903071202 | -17 | 257 | 0.0 | 0.0 | 0.00 | 0.00 | 0.00 | 99 | 1009.0 |
| 20260903070702 | -17 | 185 | 0.0 | 0.0 | 0.00 | 0.00 | 0.00 | 99 | 1009.1 |
| 20260903070202 | -17 | 216 | 0.0 | 0.0 | 0.00 | 0.00 | 0.00 | 99 | 1009.1 |
| 20260903065702 | -17 | 139 | 0.0 | 0.0 | 0.00 | 0.00 | 0.00 | 99 | 1009.2 |
| 20260903065202 | -17 | 277 | 0.0 | 0.0 | 0.00 | 0.00 | 0.00 | 99 | 1009.2 |
| 20260903064702 | -17 | 184 | 0.0 | 0.0 | 0.00 | 0.00 | 0.00 | 99 | 1009.0 |
| 20260903064202 | -17 | 265 | 0.0 | 0.0 | 0.00 | 0.00 | 0.00 | 99 | 1009.0 |
| 20260903063702 | -17 | 187 | 0.0 | 0.0 | 0.00 | 0.00 | 0.00 | 99 | 1009.0 |
| 20260903063202 | -17 | 184 | 0.0 | 0.0 | 0.00 | 0.00 | 0.00 | 99 | 1009.0 |
| 20260903062702 | -17 | 185 | 0.0 | 0.0 | 0.00 | 0.00 | 0.00 | 99 | 1009.0 |
| 20260903062202 | -17 | 251 | 0.0 | 0.0 | 0.00 | 0.00 | 0.00 | 99 | 1009.0 |
| 20260903061702 | -17 | 95 | 0.0 | 0.0 | 0.00 | 0.00 | 0.00 | 99 | 1009.0 |
| 20260903061202 | -17 | 135 | 0.0 | 0.0 | 0.00 | 0.00 | 0.00 | 99 | 1009.0 |
| 20260903060702 | -17 | 101 | 0.0 | 0.0 | 0.00 | 0.00 | 0.00 | 99 | 1009.0 |
| 20260903060202 | -17 | 282 | 0.0 | 0.0 | 0.00 | 0.00 | 0.00 | 99 | 1009.0 |
| 20260903055702 | -17 | 131 | 0.0 | 0.0 | 0.00 | 0.00 | 0.00 | 99 | 1009.2 |
| 20260903055202 | -17 | 277 | 0.0 | 0.0 | 0.00 | 0.00 | 0.00 | 99 | 1009.2 |
| 20260903054702 | -17 | 274 | 0.0 | 0.0 | 0.00 | 0.00 | 0.00 | 99 | 1010.0 |
| 20260903054202 | -17 | 180 | 0.0 | 0.0 | 0.00 | 0.00 | 0.00 | 99 | 1010.0 |
| 20260903053702 | -17 | 222 | 0.0 | 0.0 | 0.00 | 0.00 | 0.00 | 99 | 1010.0 |
| 20260903053202 | -17 | 286 | 0.0 | 0.0 | 0.00 | 0.00 | 0.00 | 99 | 1010.0 |
| 20260903052702 | -17 | 214 | 0.0 | 0.0 | 0.00 | 0.00 | 0.00 | 99 | 1010.0 |
| 20260903052202 | -17 | 284 | 0.0 | 0.0 | 0.00 | 0.00 | 0.00 | 99 | 1010.0 |
| 20260903051702 | -17 | 89 | 0.0 | 0.0 | 0.00 | 0.00 | 0.00 | 99 | 1010.0 |
| 20260903051202 | -17 | 194 | 0.0 | 0.0 | 0.00 | 0.00 | 0.00 | 99 | 1010.0 |
| 20260903050702 | -17 | 231 | 0.0 | 0.0 | 0.00 | 0.00 | 0.00 | 99 | 1010.0 |
| 20260903050202 | -17 | 225 | 0.0 | 0.0 | 0.00 | 0.00 | 0.00 | 99 | 1010.0 |
| 20260903045702 | -17 | 217 | 0.0 | 0.0 | 0.00 | 0.00 | 0.00 | 99 | 1010.0 |
| 20260903045202 | -17 | 214 | 0.0 | 0.0 | 0.00 | 0.00 | 0.00 | 99 | 1010.1 |
| 20260903044702 | -17 | 219 | 0.0 | 0.0 | 0.00 | 0.00 | 0.00 | 99 | 1011.0 |
| 20260903044202 | -17 | 225 | 0.0 | 0.0 | 0.00 | 0.00 | 0.00 | 99 | 1010.1 |
| 20260903043702 | -17 | 227 | 0.0 | 0.0 | 0.00 | 0.00 | 0.00 | 99 | 1010.0 |
| 20260903043202 | -17 | 232 | 0.0 | 0.0 | 0.00 | 0.00 | 0.00 | 99 | 1009.2 |
| 20260903042702 | -17 | 234 | 0.0 | 0.0 | 0.00 | 0.00 | 0.00 | 99 | 1010.0 |
| 20260903042202 | -17 | 274 | 0.0 | 0.0 | 0.00 | 0.00 | 0.00 | 99 | 1010.0 |
| 20260903041702 | -17 | 227 | 0.0 | 0.0 | 0.00 | 0.00 | 0.00 | 99 | 1010.2 |
| 20260903041202 | -17 | 303 | 0.0 | 0.0 | 0.00 | 0.00 | 0.00 | 99 | 1011.0 |
| 20260903040702 | -17 | 229 | 0.0 | 0.0 | 0.00 | 0.00 | 0.00 | 99 | 1011.0 |
| 20260903040202 | -17 | 208 | 0.0 | 0.0 | 0.00 | 0.00 | 0.00 | 99 | 1011.0 |
| 20260903035702 | -17 | 233 | 0.0 | 0.0 | 0.00 | 0.00 | 0.00 | 99 | 1011.0 |
| 20260903035202 | -17 | 161 | 0.0 | 0.0 | 0.00 | 0.00 | 0.00 | 99 | 1011.0 |
| 20260903034702 | -17 | 277 | 0.0 | 0.0 | 0.00 | 0.00 | 0.00 | 99 | 1011.0 |
| 20260903034202 | -17 | 118 | 0.0 | 0.0 | 0.00 | 0.00 | 0.00 | 99 | 1011.2 |
| 20260903033702 | -17 | 269 | 0.0 | 0.0 | 0.00 | 0.00 | 0.00 | 99 | 1012.0 |
| 20260903033202 | -17 | 260 | 0.0 | 0.0 | 0.00 | 0.00 | 0.00 | 99 | 1011.2 |
| 20260903032702 | -17 | 273 | 0.0 | 0.0 | 0.00 | 0.00 | 0.00 | 99 | 1011.0 |
| 20260903032202 | -17 | 271 | 0.0 | 0.0 | 0.00 | 0.00 | 0.00 | 99 | 1011.0 |
| 20260903031702 | -17 | 102 | 0.0 | 3.2 | 0.00 | 0.00 | 0.00 | 99 | 1011.0 |
| 20260903031202 | -17 | 352 | 0.0 | 3.2 | 0.00 | 0.00 | 0.00 | 99 | 1010.2 |
| 20260903030702 | -17 | 86 | 0.0 | 4.8 | 0.00 | 0.00 | 0.00 | 99 | 1011.0 |
| 20260903030202 | -17 | 262 | 0.0 | 6.4 | 0.00 | 0.00 | 0.00 | 99 | 1011.0 |
| 20260903025702 | -17 | 299 | 0.0 | 6.4 | 0.00 | 0.00 | 0.00 | 99 | 1011.0 |
| 20260903025202 | -17 | 275 | 0.0 | 1.6 | 0.00 | 0.00 | 0.00 | 99 | 1011.0 |
| 20260903024702 | -17 | 247 | 0.0 | 3.2 | 0.00 | 0.00 | 0.00 | 99 | 1011.0 |
| 20260903024202 | -17 | 274 | 0.0 | 3.2 | 0.00 | 0.00 | 0.00 | 99 | 1011.0 |
| 20260903023702 | -17 | 271 | 0.0 | 0.0 | 0.00 | 0.00 | 0.00 | 99 | 1011.0 |
| 20260903023202 | -17 | 233 | 0.0 | 0.0 | 0.00 | 0.00 | 0.00 | 99 | 1011.0 |
| 20260903022702 | -17 | 140 | 0.0 | 0.0 | 0.00 | 0.00 | 0.00 | 99 | 1011.0 |
| 20260903022202 | -17 | 90 | 0.0 | 0.0 | 0.00 | 0.00 | 0.00 | 99 | 1011.2 |
| 20260903021702 | -17 | 273 | 0.0 | 0.0 | 0.00 | 0.00 | 0.00 | 99 | 1012.0 |
| 20260903021202 | -17 | 323 | 0.0 | 0.0 | 0.00 | 0.00 | 0.00 | 99 | 1012.0 |
| 20260903020702 | -17 | 170 | 0.0 | 0.0 | 0.00 | 0.00 | 0.00 | 99 | 1012.0 |
| 20260903020202 | -17 | 91 | 0.0 | 0.0 | 0.00 | 0.00 | 0.00 | 99 | 1011.2 |
| 20260903015702 | -17 | 270 | 0.0 | 0.0 | 0.00 | 0.00 | 0.00 | 99 | 1012.0 |
| 20260903015202 | -17 | 271 | 0.0 | 0.0 | 0.00 | 0.00 | 0.00 | 99 | 1012.0 |
| 20260903014702 | -17 | 127 | 0.0 | 0.0 | 0.00 | 0.00 | 0.00 | 99 | 1012.0 |
| 20260903014202 | -17 | 137 | 0.0 | 0.0 | 0.00 | 0.00 | 0.00 | 99 | 1012.0 |
| 20260903013702 | -17 | 272 | 0.0 | 0.0 | 0.00 | 0.00 | 0.00 | 99 | 1012.0 |
| 20260903013202 | -17 | 277 | 0.0 | 0.0 | 0.00 | 0.00 | 0.00 | 99 | 1011.2 |
| 20260903012701 | -17 | 317 | 0.0 | 0.0 | 0.00 | 0.00 | 0.00 | 99 | 1012.0 |
| 20260903012202 | -17 | 85 | 0.0 | 0.0 | 0.00 | 0.00 | 0.00 | 99 | 1012.0 |
| 20260903011702 | -17 | 269 | 0.0 | 0.0 | 0.00 | 0.00 | 0.00 | 99 | 1012.0 |
| 20260903011201 | -17 | 269 | 0.0 | 0.0 | 0.00 | 0.00 | 0.00 | 99 | 1011.2 |
| 20260903010701 | -17 | 308 | 0.0 | 4.8 | 0.00 | 0.00 | 0.00 | 99 | 1012.0 |
| 20260903010201 | -17 | 283 | 0.0 | 8.0 | 0.00 | 0.00 | 0.00 | 99 | 1012.0 |
| 20260903005702 | -17 | 49 | 1.6 | 8.0 | 0.00 | 0.00 | 0.00 | 99 | 1012.0 |
| 20260903005201 | -17 | 298 | 0.0 | 3.2 | 0.00 | 0.00 | 0.00 | 99 | 1012.0 |
| 20260903004701 | -17 | 277 | 0.0 | 1.6 | 0.00 | 0.00 | 0.00 | 99 | 1012.0 |
| 20260903004201 | -17 | 274 | 0.0 | 1.6 | 0.00 | 0.00 | 0.00 | 99 | 1012.0 |
| 20260903003701 | -17 | 261 | 0.0 | 4.8 | 0.00 | 0.00 | 0.00 | 99 | 1011.2 |
| 20260903003201 | -17 | 256 | 0.0 | 4.8 | 0.00 | 0.00 | 0.00 | 99 | 1011.2 |
| 20260903002701 | -17 | 83 | 0.0 | 1.6 | 0.00 | 0.00 | 0.00 | 99 | 1012.0 |
| 20260903002201 | -17 | 136 | 0.0 | 1.6 | 0.00 | 0.00 | 0.00 | 99 | 1011.2 |
| 20260903001702 | -17 | 251 | 0.0 | 3.2 | 0.00 | 0.00 | 0.00 | 99 | 1011.2 |
| 20260903001201 | -17 | 230 | 0.0 | 3.2 | 0.00 | 0.00 | 0.00 | 99 | 1011.0 |
| 20260903000701 | -17 | 87 | 0.0 | 0.0 | 0.00 | 0.00 | 0.00 | 99 | 1011.0 |
| 20260903000204 | -17 | 275 | 0.0 | 0.0 | 0.00 | 0.00 | 0.00 | 99 | 1011.2 |
| 20260902235701 | -17 | 280 | 0.0 | 0.0 | 0.00 | 0.00 | 0.00 | 99 | 1012.0 |
| 20260902235201 | -17 | 50 | 0.0 | 0.0 | 0.00 | 0.00 | 0.00 | 99 | 1012.0 |
| 20260902234701 | -17 | 284 | 0.0 | 0.0 | 0.00 | 0.00 | 0.00 | 99 | 1012.0 |
| 20260902234201 | -17 | 93 | 0.0 | 0.0 | 0.00 | 0.00 | 0.00 | 99 | 1012.0 |
| 20260902233701 | -17 | 271 | 0.0 | 4.8 | 0.00 | 0.00 | 0.00 | 99 | 1012.0 |
| 20260902233201 | -17 | 229 | 0.0 | 6.4 | 0.00 | 0.00 | 0.00 | 99 | 1012.0 |
| 20260902232701 | -17 | 270 | 0.0 | 6.4 | 0.00 | 0.00 | 0.00 | 99 | 1012.0 |
| 20260902232201 | -17 | 265 | 0.0 | 0.0 | 0.00 | 0.00 | 0.00 | 99 | 1012.0 |
| 20260902231702 | -17 | 253 | 0.0 | 0.0 | 0.00 | 0.00 | 0.00 | 99 | 1012.0 |
| 20260902231201 | -17 | 269 | 0.0 | 0.0 | 0.00 | 0.00 | 0.00 | 99 | 1012.0 |
| 20260902230701 | -17 | 308 | 0.0 | 0.0 | 0.00 | 0.00 | 0.00 | 99 | 1012.0 |
| 20260902230201 | -17 | 265 | 0.0 | 0.0 | 0.00 | 0.00 | 0.00 | 99 | 1012.0 |
| 20260902225701 | -17 | 258 | 0.0 | 8.0 | 0.00 | 0.00 | 0.00 | 99 | 1012.0 |
| 20260902225201 | -17 | 276 | 1.6 | 11.3 | 0.00 | 0.00 | 0.00 | 99 | 1012.0 |
| 20260902224701 | -17 | 268 | 3.2 | 11.3 | 0.00 | 0.00 | 0.00 | 99 | 1012.0 |
| 20260902224201 | -17 | 125 | 1.6 | 6.4 | 0.00 | 0.00 | 0.00 | 99 | 1012.2 |
| 20260902223701 | -17 | 266 | 1.6 | 6.4 | 0.00 | 0.00 | 0.00 | 99 | 1013.0 |
| 20260902223201 | -17 | 174 | 0.0 | 6.4 | 0.00 | 0.00 | 0.00 | 99 | 1013.0 |
| 20260902222701 | -17 | 263 | 0.0 | 6.4 | 0.00 | 0.00 | 0.00 | 99 | 1012.2 |
| 20260902222201 | -17 | 126 | 0.0 | 1.6 | 0.00 | 0.00 | 0.00 | 99 | 1013.0 |
| 20260902221702 | -17 | 89 | 0.0 | 4.8 | 0.00 | 0.00 | 0.00 | 99 | 1012.2 |
| 20260902221201 | -17 | 267 | 0.0 | 4.8 | 0.00 | 0.00 | 0.00 | 99 | 1013.0 |
| 20260902220701 | -17 | 95 | 1.6 | 4.8 | 0.00 | 0.00 | 0.00 | 99 | 1012.2 |
| 20260902215701 | -17 | 90 | 1.6 | 6.4 | 0.00 | 0.00 | 0.00 | 99 | 1012.2 |
| 20260902215201 | -17 | 129 | 3.2 | 6.4 | 0.00 | 0.00 | 0.00 | 99 | 1012.2 |
| 20260902214701 | -17 | 268 | 0.0 | 4.8 | 0.00 | 0.00 | 0.00 | 99 | 1012.2 |
| 20260902214201 | -17 | 275 | 0.0 | 4.8 | 0.00 | 0.00 | 0.00 | 99 | 1013.0 |
| 20260902213701 | -17 | 250 | 1.6 | 6.4 | 0.00 | 0.00 | 0.00 | 99 | 1013.0 |
| 20260902213201 | -17 | 269 | 0.0 | 6.4 | 0.00 | 0.00 | 0.00 | 99 | 1013.0 |
| 20260902212701 | -17 | 270 | 1.6 | 6.4 | 0.00 | 0.00 | 0.00 | 99 | 1013.0 |
| 20260902212201 | -17 | 99 | 0.0 | 4.8 | 0.00 | 0.00 | 0.00 | 99 | 1012.2 |
| 20260902211701 | -17 | 266 | 0.0 | 4.8 | 0.00 | 0.00 | 0.00 | 99 | 1013.0 |
| 20260902211201 | -17 | 263 | 1.6 | 4.8 | 0.00 | 0.00 | 0.00 | 99 | 1013.0 |
| 20260902210201 | -17 | 273 | 1.6 | 6.4 | 0.00 | 0.00 | 0.00 | 99 | 1012.2 |
| 20260902205701 | -17 | 278 | 1.6 | 6.4 | 0.00 | 0.00 | 0.00 | 99 | 1013.0 |
| 20260902205201 | -17 | 279 | 1.6 | 6.4 | 0.00 | 0.00 | 0.00 | 99 | 1013.0 |
| 20260902204701 | -17 | 275 | 1.6 | 9.7 | 0.00 | 0.00 | 0.00 | 99 | 1013.0 |
| 20260902204201 | -17 | 273 | 1.6 | 9.7 | 0.00 | 0.00 | 0.00 | 99 | 1012.2 |
| 20260902203701 | -17 | 274 | 0.0 | 8.0 | 0.00 | 0.00 | 0.00 | 99 | 1013.0 |
| 20260902203201 | -17 | 275 | 0.0 | 8.0 | 0.00 | 0.00 | 0.00 | 99 | 1013.0 |
| 20260902202701 | -17 | 280 | 1.6 | 8.0 | 0.00 | 0.00 | 0.00 | 99 | 1012.2 |
| 20260902202201 | -17 | 98 | 0.0 | 8.0 | 0.00 | 0.00 | 0.00 | 99 | 1012.2 |
| 20260902201701 | -17 | 289 | 1.6 | 8.0 | 0.00 | 0.00 | 0.00 | 99 | 1013.0 |
| 20260902201201 | -17 | 273 | 3.2 | 8.0 | 0.00 | 0.00 | 0.00 | 99 | 1012.2 |
| 20260902200701 | -17 | 96 | 3.2 | 8.0 | 0.00 | 0.00 | 0.00 | 99 | 1012.2 |
| 20260902200201 | -17 | 225 | 1.6 | 8.0 | 0.00 | 0.00 | 0.00 | 99 | 1012.2 |
| 20260902195701 | -17 | 268 | 0.0 | 6.4 | 0.00 | 0.00 | 0.00 | 99 | 1012.2 |
| 20260902195201 | -17 | 268 | 1.6 | 6.4 | 0.00 | 0.00 | 0.00 | 99 | 1012.2 |
| 20260902194701 | -17 | 268 | 1.6 | 6.4 | 0.00 | 0.00 | 0.00 | 99 | 1012.2 |
| 20260902194201 | -17 | 273 | 1.6 | 6.4 | 0.00 | 0.00 | 0.00 | 99 | 1012.2 |
| 20260902193701 | -17 | 275 | 0.0 | 6.4 | 0.00 | 0.00 | 0.00 | 99 | 1012.2 |
| 20260902193201 | -17 | 269 | 0.0 | 8.0 | 0.00 | 0.00 | 0.00 | 99 | 1013.0 |
| 20260902192701 | -17 | 273 | 1.6 | 8.0 | 0.00 | 0.00 | 0.00 | 99 | 1013.0 |
| 20260902192201 | -17 | 269 | 0.0 | 4.8 | 0.00 | 0.00 | 0.00 | 99 | 1013.0 |
| 20260902191701 | -17 | 267 | 1.6 | 4.8 | 0.00 | 0.00 | 0.00 | 99 | 1013.0 |
| 20260902191201 | -17 | 265 | 0.0 | 6.4 | 0.00 | 0.00 | 0.00 | 99 | 1012.2 |
| 20260902190701 | -17 | 217 | 1.6 | 6.4 | 0.00 | 0.00 | 0.00 | 99 | 1013.0 |
| 20260902190201 | -17 | 47 | 0.0 | 0.0 | 0.00 | 0.00 | 0.00 | 99 | 1013.0 |
| 20260902185701 | -17 | 349 | 0.0 | 3.2 | 0.00 | 0.00 | 0.00 | 99 | 1012.2 |
| 20260902185203 | -17 | 278 | 0.0 | 4.8 | 0.00 | 0.00 | 0.00 | 99 | 1013.0 |
| 20260902184701 | -17 | 272 | 0.0 | 4.8 | 0.00 | 0.00 | 0.00 | 99 | 1013.0 |
| 20260902184201 | -17 | 288 | 0.0 | 4.8 | 0.00 | 0.00 | 0.00 | 99 | 1012.2 |
| 20260902183701 | -17 | 273 | 1.6 | 4.8 | 0.00 | 0.00 | 0.00 | 99 | 1013.0 |
| 20260902183201 | -17 | 270 | 0.0 | 4.8 | 0.00 | 0.00 | 0.00 | 99 | 1013.0 |
| 20260902182701 | -17 | 269 | 0.0 | 4.8 | 0.00 | 0.00 | 0.00 | 99 | 1013.0 |
| 20260902182201 | -17 | 90 | 0.0 | 4.8 | 0.00 | 0.00 | 0.00 | 99 | 1012.2 |
| 20260902181701 | -17 | 132 | 1.6 | 6.4 | 0.00 | 0.00 | 0.00 | 99 | 1012.2 |
| 20260902181201 | -17 | 264 | 1.6 | 6.4 | 0.00 | 0.00 | 0.00 | 99 | 1012.2 |
| 20260902180701 | -17 | 169 | 0.0 | 4.8 | 0.00 | 0.00 | 0.00 | 99 | 1012.2 |
| 20260902180201 | -17 | 268 | 0.0 | 4.8 | 0.00 | 0.00 | 0.00 | 99 | 1013.0 |
| 20260902175701 | -17 | 262 | 1.6 | 8.0 | 0.00 | 0.00 | 0.00 | 99 | 1012.2 |
| 20260902175201 | -17 | 266 | 1.6 | 8.0 | 0.00 | 0.00 | 0.00 | 99 | 1012.2 |
| 20260902174701 | -17 | 97 | 0.0 | 9.7 | 0.00 | 0.00 | 0.00 | 99 | 1012.2 |
| 20260902174201 | -17 | 171 | 0.0 | 9.7 | 0.00 | 0.00 | 0.00 | 99 | 1012.2 |
| 20260902173701 | -17 | 275 | 0.0 | 6.4 | 0.00 | 0.00 | 0.00 | 99 | 1013.0 |
| 20260902173201 | -17 | 131 | 0.0 | 6.4 | 0.00 | 0.00 | 0.00 | 99 | 1012.2 |
| 20260902172701 | -17 | 209 | 0.0 | 3.2 | 0.00 | 0.00 | 0.00 | 99 | 1013.0 |
| 20260902172201 | -17 | 102 | 0.0 | 6.4 | 0.00 | 0.00 | 0.00 | 99 | 1013.1 |
| 20260902171701 | -17 | 286 | 1.6 | 6.4 | 0.00 | 0.00 | 0.00 | 99 | 1013.2 |
| 20260902171201 | -17 | 279 | 0.0 | 1.6 | 0.00 | 0.00 | 0.00 | 99 | 1013.2 |
| 20260902170701 | -17 | 276 | 0.0 | 3.2 | 0.00 | 0.00 | 0.00 | 99 | 1014.0 |
| 20260902170201 | -17 | 276 | 0.0 | 4.8 | 0.00 | 0.00 | 0.00 | 99 | 1014.0 |
| 20260902165701 | -17 | 275 | 0.0 | 4.8 | 0.00 | 0.00 | 0.00 | 99 | 1013.2 |
| 20260902165201 | -17 | 266 | 0.0 | 3.2 | 0.00 | 0.00 | 0.00 | 99 | 1013.2 |
| 20260902164701 | -17 | 237 | 0.0 | 1.6 | 0.00 | 0.00 | 0.00 | 99 | 1014.0 |
| 20260902164201 | -17 | 265 | 0.0 | 3.2 | 0.00 | 0.00 | 0.00 | 99 | 1013.2 |
| 20260902163701 | -17 | 271 | 0.0 | 4.8 | 0.00 | 0.00 | 0.00 | 99 | 1013.2 |
| 20260902163201 | -17 | 285 | 0.0 | 4.8 | 0.00 | 0.00 | 0.00 | 99 | 1014.0 |
| 20260902162701 | -17 | 230 | 0.0 | 6.4 | 0.00 | 0.00 | 0.00 | 99 | 1014.0 |
| 20260902162201 | -17 | 270 | 1.6 | 6.4 | 0.00 | 0.00 | 0.00 | 99 | 1013.2 |
| 20260902161701 | -17 | 229 | 0.0 | 4.8 | 0.00 | 0.00 | 0.00 | 99 | 1014.0 |
| 20260902161201 | -17 | 271 | 0.0 | 11.3 | 0.00 | 0.00 | 0.00 | 99 | 1014.0 |
| 20260902160701 | -17 | 274 | 1.6 | 11.3 | 0.00 | 0.00 | 0.00 | 99 | 1014.0 |
| 20260902160201 | -17 | 278 | 0.0 | 8.0 | 0.00 | 0.00 | 0.00 | 99 | 1014.0 |
| 20260902155701 | -17 | 288 | 1.6 | 8.0 | 0.00 | 0.00 | 0.00 | 99 | 1013.2 |
| 20260902155201 | -17 | 89 | 0.0 | 8.0 | 0.00 | 0.00 | 0.00 | 99 | 1014.0 |
| 20260902154701 | -17 | 270 | 0.0 | 8.0 | 0.00 | 0.00 | 0.00 | 99 | 1013.2 |
| 20260902154201 | -17 | 270 | 0.0 | 6.4 | 0.00 | 0.00 | 0.00 | 99 | 1014.0 |
| 20260902153701 | -17 | 277 | 0.0 | 4.8 | 0.00 | 0.00 | 0.00 | 99 | 1013.2 |
| 20260902153201 | -17 | 274 | 0.0 | 4.8 | 0.00 | 0.00 | 0.00 | 99 | 1013.2 |
| 20260902152701 | -17 | 176 | 0.0 | 3.2 | 0.00 | 0.00 | 0.00 | 99 | 1013.2 |